Regional Weather Roundup
Issued by NWS

Home | Current Version | Previous Version | Graphics & Text | Print | Product List | Glossary On
Versions: 1 2 3 4 5 6 7 8 9 10 11 12 13 14 15 16 17 18 19 20 21 22 23 24 25 26 27 28 29 30 31 32 33 34 35 36 37 38 39 40 41 42 43 44 45 46 47 48 49 50
000
ASUS43 KMPX 280301
RWRMN
WEATHER ROUNDUP FOR MINNESOTA
NATIONAL WEATHER SERVICE TWIN CITIES/CHANHASSEN MN
1000 PM CDT SUN MAY 27 2018


NOTE: "FAIR" INDICATES FEW OR NO CLOUDS BELOW 12,000 FEET WITH NO
SIGNIFICANT WEATHER AND/OR OBSTRUCTIONS TO VISIBILITY. N/A MEANS
CURRENT SKY AND/OR WEATHER CONDITIONS ARE NOT AVAILABLE.

MNZ060>063-068>070-280400-
   Twin Cities Metro

CITY           SKY/WX    TMP DP  RH WIND       PRES   REMARKS
TWIN CITIES    MOCLDY    86  58  38 S10       29.80R
ST PAUL        FAIR      81  63  54 SE7       29.80R
CRYSTAL        FAIR      85  58  39 S10       29.78R
BLAINE         FAIR      84  61  45 S8        29.79R
LAKEVILLE      FAIR      81  55  41 SE6       29.81S
EDEN PRAIRIE   FAIR      83  56  39 SE9       29.79R
SOUTH ST PAUL  FAIR      83  58  42 S5        29.80R
LAKE ELMO      FAIR      81  61  50 S7        29.82S
$$
MNZ001>005-007-008-013>017-022>024-027-028-280400-
   Northwest Minnesota

CITY           SKY/WX    TMP DP  RH WIND       PRES   REMARKS
BEMIDJI        FAIR      68  62  81 N3        29.88R
HALLOCK        FAIR      73  59  60 NE5       29.85R
ROSEAU         FAIR      70  63  78 CALM      29.88R
WARROAD        FAIR      64  61  88 CALM      29.89R
THIEF RVR FALL FAIR      74  60  61 NE7       29.88R
CROOKSTON      FAIR      75  61  60 NE5       29.86R
FOSSTON        FAIR      72  57  60 NE5       29.87R
DETROIT LAKES  FAIR      73  63  68 NE6       29.85R
MOORHEAD       FAIR      75  63  64 NE9       29.81R
PARK RAPIDS    MOCLDY    75  59  57 N8        29.86R
MAHNOMEN       MOCLDY    71  61  72 NE7       29.84S
$$
MNZ006-009>011-018-025>026-280400-
   North Central Minnesota

CITY           SKY/WX    TMP DP  RH WIND       PRES   REMARKS
BAUDETTE         N/A    N/A N/A N/A MISG      29.88R
FLAG ISLAND    FAIR      68  63  83 CALM      29.88R
INTL FALLS     FAIR      62  60  93 NE3       29.88R
WASKISH        FAIR      70  57  64 CALM      29.87S
BIG FORK       FAIR      72  61  68 N3        29.87R
LONGVILLE      MOCLDY    70  63  78 N6        29.86R
GRAND RAPIDS   TSTM      70  64  81 N6        29.88R
ORR            FAIR      66  57  72 CALM      29.86R
COOK           FAIR      68  61  77 CALM      29.88R
WALKER         TSTM      66  63  90 E5        29.88R
$$
MNZ012-019>021-037-280400-
   Northeast Minnesota

CITY           SKY/WX    TMP DP  RH WIND       PRES   REMARKS
DULUTH         FAIR      71  57  61 E5        29.86S
ELY            FAIR      68  57  68 CALM      29.89R
HIBBING        FAIR      65  63  93 S5        29.86S
EVELETH        FAIR      70  63  78 CALM      29.88R
DULUTH HARBOR  FAIR      54  52  94 NE3       29.86S
TWO HARBORS    FAIR      64  61  88 CALM      29.84S
SILVER BAY     FAIR      64  61  88 CALM      29.84F
GRAND MARAIS     N/A     46  42  86 NE3       29.87R
G MARAIS ARPRT FAIR      70  52  52 CALM      29.92R
$$
MNZ029>031-032-039>041-046>048-054>057-064-280400-
   West Central Minnesota

CITY           SKY/WX    TMP DP  RH WIND       PRES   REMARKS
FERGUS FALLS   FAIR      77  61  57 E13       29.73R
WHEATON        CLOUDY    79  61  53 CALM      29.75
MORRIS         CLOUDY    79  63  57 S8        29.74R
ALEXANDRIA     FAIR      81  58  45 SE7       29.79R
ELBOW LAKE     FAIR      77  64  63 E12       29.76R
WADENA         MOCLDY    72  61  68 NE6       29.82R
GLENWOOD       FAIR      77  61  57 SE7       29.79R
APPLETON       CLOUDY    77  63  61 CALM      29.74R
BENSON         PTCLDY    81  57  44 E3        29.77R
ORTONVILLE     MOCLDY    84  54  34 CALM      29.74R
MADISON        CLOUDY    86  55  35 W6        29.75R
WILLMAR        FAIR      81  59  47 E8        29.79R
$$
MNZ033>034-036-042>043-049>051-058-059-280400-
   Central Minnesota

CITY           SKY/WX    TMP DP  RH WIND       PRES   REMARKS
ST CLOUD       FAIR      74  60  61 SE3       29.79R
SAUK CENTRE    FAIR      75  61  60 E5        29.79R
PAYNESVILLE    FAIR      81  62  51 E5        29.79R
AITKIN         MOCLDY    64  61  88 CALM      29.83R
PINE RIVER     FAIR      70  61  73 NE5       29.88R
BRAINERD       FAIR      68  62  81 E3        29.83S
STAPLES        FAIR      73  61  64 CALM      29.82R
LONG PRAIRIE   FAIR      73  59  60 N3        29.81R
LITTLE FALLS   FAIR      73  61  64 NE6       29.81R
LITCHFIELD     FAIR      82  61  47 SE6       29.78R
BUFFALO        FAIR      82  57  43 SE6       29.80R
MAPLE LAKE     FAIR      79  63  57 CALM      29.80R
HUTCHINSON     FAIR      80  61  52 SE9       29.79R
$$
MNZ037-044-045-052-053-280400-
   East Central Minnesota

CITY           SKY/WX    TMP DP  RH WIND       PRES   REMARKS
PRINCETON      FAIR      75  61  60 CALM      29.80R
MORA           FAIR      72  61  68 E3        29.84R
CAMBRIDGE      FAIR      79  63  57 NE3       29.81R
RUSH CITY      FAIR      75  62  63 NE6       29.82R
MOOSE LAKE     FAIR      66  63  88 CALM      29.83R
HINCKLEY       FAIR      73  63  68 E5        29.83R
CLOQUET        FAIR      68  57  68 CALM      29.85S
MCGREGOR       FAIR      70  61  73 CALM      29.85R
$$
MNZ071>073-080-081-089-090-097-098-280400-
   Southwest Minnesota

CITY           SKY/WX    TMP DP  RH WIND       PRES   REMARKS
MONTEVIDEO     PTCLDY    84  55  37 S3        29.75R
CANBY          CLOUDY    85  59  40 SW3       29.77R
MARSHALL       CLOUDY    86  60  41 S7        29.77R
REDWOOD FALLS  CLOUDY    83  58  42 S8        29.75R
OLIVIA         CLOUDY    82  55  39 SE8       29.76R
PIPESTONE      PTCLDY    79  55  44 S8        29.80S
WINDOM         CLOUDY    84  55  37 S7        29.80R
WORTHINGTON    MOCLDY    84  58  40 S7        29.82R
JACKSON        CLOUDY    84  55  37 S10       29.84R
$$
MNZ065>067-074>077-082>085-091>093-280400-
   South Central Minnesota

CITY           SKY/WX    TMP DP  RH WIND       PRES   REMARKS
MANKATO        FAIR      87  59  38 SE16G22   29.80R
NEW ULM        CLOUDY    86  50  28 SE9       29.78R
ST JAMES       PTCLDY    90  52  27 SE16      29.80R
FAIRMONT       MOCLDY    88  59  37 S16       29.81R
GLENCOE        FAIR      84  56  37 SE8       29.78R
FARIBAULT      FAIR      82  55  39 CALM      29.83R
OWATONNA       FAIR      84  57  39 SE9       29.83
WASECA         FAIR      82  54  36 SE12      29.83R
ALBERT LEA     FAIR      84  50  30 SE9       29.85R
$$
MNZ078>079-086>088-094>096-280400-
   Southeast Minnesota

CITY           SKY/WX    TMP DP  RH WIND       PRES   REMARKS
ROCHESTER      FAIR      76  57  51 SE8       29.87R
RED WING       FAIR      75  59  57 E5        29.82R
STANTON        FAIR      86  52  30 SE12      29.81R
DODGE CENTER   FAIR      81  54  39 CALM      29.87R
WINONA         FAIR      73  64  73 CALM      29.85S
AUSTIN         FAIR      81  55  41 SE6       29.86R
PRESTON        FAIR      76  54  45 SE6       29.89R
$$
ABBREVIATIONS USED IN REMARKS
   TC - TEMPERATURES IN CELSIUS
  WCI - WIND CHILL INDEX
   HX - HEAT INDEX
  VSB - VISIBILITY
$$




USA.gov is the U.S. government's official web portal to all federal, state and local government web resources and services.